[[{"header":{"parameterUnit":"m.s-1","parameterCategory":1,"la1":30.2991,"la2":30.254,"lo1":-89.0895,"lo2":-89.0444,"dx":0.0017,"dy":0.0017,"nx":28,"ny":28,"refTime":"2022-11-07T03:00:00:Z","depth":0,"parameterNumber":2,"parameterNumberName":"U-component_of_WINDS"},"data":[0,0,0,0,0,0,0,0,0,0,0,0,0,0,0,0,0,0,0,0,0,0,0,0,0,0,0,0,0,0,0,0,0,0,0,0,0,0,0,0,0,0,0,0,0,0,0,0,0,0,0,0,0,0,0,0,0,0,-1.6301,-1.6301,0,-1.6321,-1.6321,-1.6321,-1.6257,-1.6255,-1.6253,-1.6251,-1.6273,-1.6276,-1.6278,0,0,0,0,0,0,0,0,0,0,0,0,0,-1.6211,-1.6213,-1.6301,-1.6301,-1.6301,-1.6321,-1.6321,-1.6321,-1.6257,-1.6255,-1.6252,-1.625,-1.6273,-1.6276,-1.6278,0,0,0,0,0,0,0,0,0,0,0,0,0,-1.6242,-1.6213,-1.6301,-1.6272,-1.6269,-1.6321,-1.6321,-1.6321,-1.6257,-1.6254,-1.6252,-1.6249,-1.6272,-1.6275,-1.6279,-1.636,0,0,-1.629,-1.6292,0,0,0,0,0,0,0,0,-1.624,-1.6246,-1.6276,-1.6274,-1.6271,-1.6283,-1.6297,-1.6334,-1.6258,-1.6262,-1.6251,-1.6247,-1.6279,-1.6282,-1.6292,-1.6361,-1.6362,-1.629,-1.6293,-1.6294,-1.6295,0,0,0,0,0,0,0,-1.6238,-1.6244,-1.6309,-1.6276,-1.6273,-1.6259,-1.626,-1.6304,-1.6287,-1.6261,-1.6257,-1.626,-1.6277,-1.6289,-1.6292,-1.6363,-1.629,-1.6293,-1.6296,-1.6297,-1.6501,-1.6504,0,0,0,0,0,0,-1.624,-1.6243,-1.6308,-1.6309,-1.6248,-1.6263,-1.6264,-1.6282,-1.6286,-1.6284,-1.6262,-1.6257,-1.6284,-1.6288,-1.6293,-1.6389,-1.6294,-1.6297,-1.63,-1.6498,-1.6502,-1.6505,0,0,0,0,0,0,-1.6238,-1.6246,-1.6307,-1.6275,-1.6282,-1.6267,-1.6288,-1.6284,-1.6296,-1.6287,-1.6284,-1.6277,-1.6282,-1.6288,-1.6344,-1.6389,-1.6299,-1.6302,-1.6494,-1.6499,-1.6504,-1.6582,0,0,0,0,0,0,-1.6236,-1.6246,-1.6276,-1.6276,-1.6284,-1.6357,-1.6291,-1.6287,-1.6302,-1.6295,-1.63,-1.6298,-1.628,-1.6339,-1.6348,-1.6393,-1.6305,-1.649,-1.6496,-1.6502,-1.6576,-1.6589,-1.6601,0,0,0,0,0,-1.6233,-1.6297,-1.6277,-1.6286,-1.632,-1.636,-1.6364,-1.6342,-1.6306,-1.6336,-1.6331,-1.6298,-1.6383,-1.6345,-1.6355,-1.6401,-1.6487,-1.6495,-1.6502,-1.657,-1.6587,-1.6601,0,0,0,0,0,0,-1.6303,-1.6297,-1.6275,-1.6341,-1.6352,-1.6349,-1.6387,-1.636,-1.6382,-1.6374,-1.6346,-1.6348,-1.641,-1.6411,-1.6369,-1.6481,-1.6429,-1.6438,-1.6478,-1.6494,-1.6506,-1.6504,-1.6308,0,0,0,0,0,-1.6326,-1.6358,-1.6351,-1.641,-1.6417,-1.6401,-1.6418,-1.6399,-1.6409,-1.6414,-1.6412,-1.6424,-1.6454,-1.6474,-1.65,-1.6576,-1.6577,-1.6613,-1.6625,-1.6636,-1.6644,-1.6686,-1.6702,-1.6529,-1.6529,-1.6529,0,0,-1.6374,-1.6375,-1.6397,-1.6425,-1.643,-1.6465,-1.6405,-1.6444,-1.647,-1.642,-1.6473,-1.6473,-1.6484,-1.6551,-1.658,-1.6554,-1.6692,-1.6645,-1.6653,-1.6656,-1.6695,-1.6711,-1.6726,-1.6534,-1.6533,-1.6533,0,0,-1.648,-1.6483,-1.6533,-1.6541,-1.6551,-1.654,-1.6552,-1.6554,-1.6552,-1.6605,-1.6569,-1.66,-1.6651,-1.6661,-1.6672,-1.6784,-1.6755,-1.6794,-1.686,-1.6901,-1.6914,-1.6926,-1.6967,-1.6982,-1.6802,-1.6803,-1.6803,0,-1.6539,-1.6588,-1.6563,-1.6605,-1.6619,-1.6575,-1.6626,-1.6635,-1.6654,-1.6665,-1.6635,-1.6699,-1.6704,-1.6773,-1.68,-1.6811,-1.6825,-1.6793,-1.6914,-1.6926,-1.6937,-1.6975,-1.6991,-1.6807,-1.6807,-1.6806,-1.6806,0,-1.6661,-1.6696,-1.6736,-1.6755,-1.6773,-1.682,-1.6803,-1.6825,-1.6806,-1.6799,-1.6854,-1.6859,-1.6886,-1.6901,-1.6882,-1.6968,-1.6952,-1.6919,-1.6866,-1.6958,-1.6994,-1.7009,-1.6814,-1.6812,-1.6811,-1.681,0,0,-1.681,-1.6815,-1.683,-1.6839,-1.6847,-1.6875,-1.692,-1.6946,-1.6966,-1.6981,-1.702,-1.7065,-1.7034,-1.7048,-1.7031,-1.7067,-1.7156,-1.7029,-1.7029,-1.7053,-1.7252,-1.7278,-1.7295,-1.7137,-1.714,-1.7142,-1.7252,0,-1.6915,-1.6991,-1.6971,-1.7048,-1.7081,-1.7041,-1.7081,-1.7091,-1.7087,-1.7115,-1.711,-1.7143,-1.71,-1.7108,-1.7142,-1.7138,-1.7196,-1.713,-1.7174,-1.7175,-1.7172,-1.7313,-1.734,-1.7443,-1.7265,-1.7268,-1.727,0,-1.7046,-1.7066,-1.7147,-1.7151,-1.7164,-1.72,-1.7224,-1.7251,-1.7263,-1.7257,-1.7273,-1.7249,-1.7295,-1.7242,-1.7307,-1.7262,-1.7279,-1.7281,-1.7284,-1.7287,-1.7228,-1.7321,-1.7475,-1.7491,-1.7291,-1.7289,-1.7288,0,-1.7148,-1.7195,-1.725,-1.7258,-1.7264,-1.7291,-1.7295,-1.7304,-1.7321,-1.7342,-1.7354,-1.738,-1.7394,-1.7416,-1.74,-1.7363,-1.7468,-1.7413,-1.7465,-1.7466,-1.7489,-1.7488,-1.7649,-1.75,-1.7499,-1.7499,-1.7499,0,-1.7267,-1.7318,-1.7296,-1.7329,-1.7386,-1.7362,-1.7419,-1.7419,-1.7427,-1.7461,-1.7428,-1.7461,-1.7438,-1.747,-1.7458,-1.7514,-1.752,-1.7518,-1.7514,-1.7521,-1.7522,-1.7532,-1.7524,-1.7503,-1.7502,-1.7502,-1.7501,0,-1.739,-1.7377,-1.7434,-1.7435,-1.7437,-1.7479,-1.7481,-1.7513,-1.7506,-1.755,-1.7559,-1.7549,-1.7584,-1.7571,-1.7608,-1.76,-1.7672,-1.7659,-1.7668,-1.7665,-1.7718,-1.7713,-1.7891,-1.7914,-1.775,-1.7751,-1.7753,0,-1.7467,-1.7505,-1.7511,-1.7531,-1.7537,-1.757,-1.7588,-1.7567,-1.7587,-1.7605,-1.7635,-1.7667,-1.7692,-1.7751,-1.7748,-1.7777,-1.7764,-1.7825,-1.7768,-1.7775,-1.7766,-1.7764,-1.7769,-1.7836,-1.7838,-1.7839,-1.7841,0,-1.7605,-1.7597,-1.7623,-1.7649,-1.7671,-1.769,-1.7706,-1.7725,-1.7705,-1.773,-1.7765,-1.7785,-1.7823,-1.7856,-1.7883,-1.7888,-1.7862,-1.7858,-1.7872,-1.788,-1.7884,-1.7883,-1.7699,-1.7854,-1.7853,-1.7852,-1.7851,-1.7851,-1.7707,-1.774,-1.775,-1.7781,-1.7791,-1.7808,-1.7838,-1.7836,-1.7865,-1.7894,-1.788,-1.7922,-1.7934,-1.7967,-1.7976,-1.801,-1.7986,-1.8006,-1.8011,-1.8016,-1.8024,-1.7878,-1.8014,-1.8014,-1.8013,-1.8013,-1.8013,0,-1.7844,-1.7849,-1.7878,-1.7902,-1.7927,-1.79,-1.7917,-1.794,-1.7977,-1.799,-1.8015,-1.8057,-1.809,-1.809,-1.812,-1.8147,-1.8136,-1.8156,-1.8154,-1.8156,-1.8042,-1.8028,-1.8164,-1.8164,-1.8164,-1.8164,-1.8164,-1.8164,-1.7918,-1.7973,-1.7966,-1.8026,-1.803,-1.807,-1.8083,-1.8098,-1.8109,-1.8157,-1.8184,-1.8183,-1.8192,-1.8223,-1.8252,-1.8251,-1.8265,-1.8289,-1.8284,-1.8178,-1.8163,-1.8149,-1.8135,-1.8292,-1.8292,-1.8395,-1.8396,-1.8397]},{"header":{"parameterUnit":"m.s-1","parameterCategory":1,"la1":30.2991,"la2":30.254,"lo1":-89.0895,"lo2":-89.0444,"dx":0.0017,"dy":0.0017,"nx":28,"ny":28,"refTime":"2022-11-07T03:00:00:Z","depth":0,"parameterNumber":3,"parameterNumberName":"V-component_of_WINDS"},"data":[0,0,0,0,0,0,0,0,0,0,0,0,0,0,0,0,0,0,0,0,0,0,0,0,0,0,0,0,0,0,0,0,0,0,0,0,0,0,0,0,0,0,0,0,0,0,0,0,0,0,0,0,0,0,0,0,0,0,1.3272,1.3272,0,1.3268,1.3268,1.3268,1.3308,1.3309,1.331,1.3311,1.3301,1.3299,1.3298,0,0,0,0,0,0,0,0,0,0,0,0,0,1.331,1.3309,1.3272,1.3272,1.3272,1.3268,1.3268,1.3268,1.3308,1.3309,1.3311,1.3312,1.3301,1.33,1.3298,0,0,0,0,0,0,0,0,0,0,0,0,0,1.3298,1.3309,1.3272,1.3292,1.3294,1.3268,1.3268,1.3268,1.3307,1.3309,1.3311,1.3313,1.3302,1.33,1.3298,1.3251,0,0,1.3292,1.3291,0,0,0,0,0,0,0,0,1.3299,1.3297,1.3289,1.329,1.3292,1.329,1.3277,1.3262,1.3307,1.3302,1.3311,1.3313,1.3295,1.3294,1.3289,1.3251,1.325,1.3291,1.329,1.3289,1.3289,0,0,0,0,0,0,0,1.33,1.3297,1.327,1.3289,1.3291,1.3299,1.3299,1.3275,1.3289,1.3303,1.3306,1.3305,1.3297,1.3291,1.3289,1.325,1.3291,1.329,1.3288,1.3288,1.3173,1.3171,0,0,0,0,0,0,1.3299,1.3298,1.327,1.327,1.33,1.3297,1.3297,1.3289,1.3289,1.3291,1.3303,1.3307,1.3294,1.3292,1.3289,1.3235,1.3289,1.3287,1.3286,1.3175,1.3173,1.3171,0,0,0,0,0,0,1.3299,1.3296,1.3271,1.3285,1.3282,1.3295,1.3285,1.3288,1.3283,1.329,1.3292,1.3295,1.3295,1.3292,1.3261,1.3235,1.3287,1.3285,1.3177,1.3174,1.3172,1.3125,0,0,0,0,0,0,1.33,1.3296,1.328,1.3284,1.3281,1.3244,1.3284,1.3287,1.328,1.3284,1.3283,1.3285,1.3296,1.3264,1.3259,1.3233,1.3283,1.3179,1.3176,1.3173,1.3129,1.3121,1.3115,0,0,0,0,0,1.3302,1.3265,1.3279,1.3275,1.3261,1.3242,1.324,1.3256,1.3278,1.326,1.3265,1.3285,1.3239,1.326,1.3255,1.3228,1.3181,1.3177,1.3173,1.3132,1.3123,1.3115,0,0,0,0,0,0,1.3255,1.3266,1.3281,1.3246,1.3243,1.3249,1.3228,1.3245,1.3235,1.3239,1.3257,1.3257,1.3222,1.3222,1.3246,1.3183,1.3213,1.3208,1.3184,1.3175,1.3168,1.3168,1.3281,0,0,0,0,0,1.3241,1.3226,1.3236,1.3204,1.3202,1.3215,1.3207,1.322,1.3217,1.3215,1.3218,1.3213,1.3197,1.3186,1.3173,1.313,1.313,1.3109,1.3101,1.3095,1.309,1.3067,1.3058,1.3157,1.3157,1.3157,0,0,1.3211,1.3215,1.3205,1.3195,1.3194,1.3177,1.3214,1.3194,1.3181,1.3212,1.3183,1.3185,1.318,1.3143,1.3127,1.3142,1.3063,1.309,1.3085,1.3083,1.3062,1.3053,1.3044,1.3154,1.3155,1.3155,0,0,1.3148,1.315,1.3124,1.3123,1.3122,1.3131,1.3125,1.3129,1.3132,1.3104,1.3127,1.3111,1.3084,1.308,1.3074,1.301,1.3027,1.3005,1.2966,1.2944,1.2936,1.2929,1.2905,1.2897,1.3,1.3,1.3,0,1.311,1.3087,1.3107,1.3086,1.3081,1.311,1.3083,1.308,1.3074,1.3069,1.3087,1.3054,1.3053,1.3015,1.3,1.2994,1.2987,1.3004,1.2936,1.2929,1.2923,1.2901,1.2892,1.2997,1.2997,1.2998,1.2998,0,1.304,1.3024,1.3002,1.2998,1.299,1.2966,1.2981,1.297,1.2983,1.299,1.2961,1.2961,1.2948,1.294,1.2952,1.2904,1.2913,1.2933,1.2963,1.291,1.289,1.2881,1.2993,1.2994,1.2995,1.2995,0,0,1.2946,1.2955,1.2946,1.2945,1.2947,1.2934,1.291,1.29,1.289,1.2885,1.2865,1.2842,1.2861,1.2854,1.2866,1.2846,1.2795,1.2869,1.2869,1.2854,1.2741,1.2726,1.2716,1.2807,1.2806,1.2804,1.2742,0,1.2884,1.2847,1.2865,1.2824,1.2809,1.2837,1.2817,1.2815,1.2821,1.2807,1.2813,1.2796,1.2823,1.2819,1.2801,1.2805,1.2773,1.281,1.2787,1.2786,1.2787,1.2705,1.2689,1.2629,1.2734,1.2732,1.2731,0,1.2807,1.2801,1.276,1.2765,1.2759,1.2741,1.2732,1.272,1.2718,1.2723,1.2717,1.2733,1.2709,1.2741,1.2707,1.2732,1.2724,1.2724,1.2723,1.272,1.2755,1.27,1.2611,1.2602,1.2719,1.272,1.2721,0,1.2742,1.2723,1.2696,1.2694,1.27,1.2686,1.2688,1.2688,1.268,1.2673,1.2668,1.2656,1.265,1.264,1.2652,1.2674,1.2616,1.2649,1.2619,1.2618,1.2604,1.2605,1.2512,1.26,1.2601,1.2601,1.2601,0,1.267,1.2643,1.2667,1.265,1.2621,1.2642,1.2611,1.2616,1.2616,1.2599,1.2623,1.2606,1.2624,1.2609,1.2618,1.2589,1.2585,1.2588,1.2591,1.2586,1.2585,1.258,1.2584,1.2598,1.2599,1.2599,1.26,0,1.2592,1.2607,1.2579,1.2588,1.259,1.2567,1.2574,1.2558,1.2566,1.2545,1.2541,1.2553,1.2536,1.2548,1.2531,1.2537,1.2498,1.2507,1.2499,1.2502,1.2471,1.2473,1.237,1.2357,1.2455,1.2454,1.2453,0,1.2545,1.2525,1.2532,1.2524,1.2525,1.2511,1.2504,1.2523,1.2515,1.2512,1.2496,1.2482,1.2471,1.2443,1.2449,1.2436,1.2444,1.2409,1.2442,1.2437,1.2442,1.2443,1.2441,1.2402,1.24,1.24,1.2399,0,1.2459,1.2468,1.2459,1.2451,1.2443,1.2438,1.2434,1.2425,1.2445,1.2434,1.2419,1.2411,1.2395,1.238,1.2369,1.2369,1.2386,1.2389,1.2381,1.2375,1.2371,1.2372,1.248,1.2391,1.2391,1.2392,1.2392,1.2393,1.2395,1.2379,1.2382,1.237,1.237,1.2366,1.2352,1.2359,1.2348,1.2337,1.2349,1.233,1.2328,1.2316,1.2314,1.2298,1.2312,1.2301,1.2298,1.2295,1.229,1.2375,1.2296,1.2296,1.2297,1.2297,1.2297,0,1.231,1.2314,1.2303,1.2299,1.2289,1.2309,1.2307,1.2297,1.228,1.2279,1.2269,1.2251,1.2237,1.2242,1.223,1.2216,1.2223,1.2212,1.2212,1.2212,1.2279,1.2286,1.2206,1.2206,1.2206,1.2206,1.2206,1.2206,1.2265,1.2239,1.2249,1.2223,1.2226,1.2209,1.2206,1.2202,1.2201,1.2181,1.217,1.2175,1.2175,1.2163,1.2151,1.2153,1.2146,1.2131,1.2136,1.2198,1.2207,1.2216,1.2223,1.213,1.213,1.207,1.207,1.2069]}]]